GW6873 Weather Reports


Display with metric or nautical units.
time (UTC)temp
F
wind
direction
speed
MPH
gust
MPH
rain 1hr
in
rain 24hr
in
rain mn
in
humidity
%
barometer
mb
20260506091524 49 135 1.0 4.0 0.00 0.22 0.00 63 1014.5
20260506090023 49 191 2.0 4.0 0.00 0.26 0.00 63 1014.5
20260506084530 48 168 0.0 0.0 0.00 0.29 0.00 65 1014.5
20260506083030 49 139 0.0 2.0 0.00 0.29 0.00 64 1014.4
20260506081518 49 57 0.0 1.0 0.00 0.30 0.00 65 1014.4
20260506073028 51 155 1.0 3.0 0.00 0.30 0.00 60 1014.3
20260506071515 52 133 1.0 4.0 0.00 0.30 0.00 59 1014.4
20260506061528 52 136 0.0 4.0 0.00 0.30 0.30 58 1014.0
20260506044534 56 48 0.0 2.0 0.00 0.30 0.30 49 1013.4
20260506043026 57 184 1.0 2.0 0.00 0.30 0.30 49 1013.3
20260506041507 58 142 0.0 1.0 0.00 0.30 0.30 47 1013.0
20260506040013 57 231 0.0 1.0 0.00 0.30 0.30 49 1012.9
20260506034516 57 231 0.0 1.0 0.00 0.30 0.30 51 1012.8
20260506033021 57 132 0.0 1.0 0.00 0.30 0.30 53 1012.4
20260506031524 58 93 0.0 1.0 0.00 0.30 0.30 45 1012.0
20260506030005 59 186 0.0 2.0 0.00 0.30 0.30 47 1011.8
20260506024523 61 105 0.0 1.0 0.00 0.30 0.30 45 1011.3
20260506023016 63 188 0.0 5.0 0.00 0.30 0.30 37 1011.0
20260506021538 63 8 1.0 5.0 0.00 0.30 0.30 35 1010.6
20260506020024 63 268 3.0 10.0 0.00 0.30 0.30 36 1010.2
20260506014515 64 99 1.0 6.0 0.00 0.30 0.30 35 1010.1
20260506013011 65 203 0.0 9.0 0.00 0.30 0.30 37 1010.1
20260506011523 65 3 2.0 10.0 0.00 0.30 0.30 34 1010.0
20260506010021 65 150 2.0 7.0 0.00 0.30 0.30 35 1009.8
20260506004526 66 310 1.0 7.0 0.00 0.30 0.30 34 1009.7
20260506003007 69 18 1.0 3.0 0.00 0.30 0.30 35 1009.7
20260506001514 68 252 3.0 8.0 0.00 0.30 0.30 37 1009.5
20260506000019 67 237 1.0 8.0 0.00 0.30 0.30 41 1009.5
20260505234522 67 266 1.0 11.0 0.00 0.30 0.30 38 1009.4
20260505233029 68 195 3.0 8.0 0.00 0.30 0.30 38 1009.4
20260505231508 69 304 1.0 17.0 0.00 0.30 0.30 37 1009.5
20260505230013 68 316 3.0 13.0 0.00 0.30 0.30 40 1009.5
20260505224526 68 252 2.0 6.0 0.00 0.30 0.30 43 1009.6
20260505223024 66 242 0.0 11.0 0.00 0.30 0.30 52 1010.2
20260505221524 66 305 3.0 11.0 0.00 0.30 0.30 43 1010.1
20260505220012 68 183 3.0 14.0 0.00 0.30 0.30 41 1009.8
20260505214515 68 144 2.0 9.0 0.00 0.30 0.30 41 1010.1
20260505213021 67 262 3.0 13.0 0.00 0.30 0.30 44 1010.3
20260505211535 65 291 1.0 8.0 0.00 0.30 0.30 49 1010.8
20260505210028 65 271 4.0 16.0 0.00 0.30 0.30 48 1011.1
20260505204511 68 328 5.0 12.0 0.01 0.30 0.30 45 1010.8
20260505203015 67 15 2.0 12.0 0.01 0.30 0.30 49 1011.1
20260505201523 66 203 2.0 7.0 0.01 0.30 0.30 54 1011.3
20260505200025 64 77 3.0 11.0 0.01 0.30 0.30 58 1011.6
20260505194526 67 306 5.0 19.0 0.00 0.29 0.29 49 1011.2
20260505193014 68 248 2.0 9.0 0.00 0.29 0.29 48 1011.1
20260505191520 66 345 2.0 10.0 0.00 0.29 0.29 52 1011.0
20260505190023 66 359 3.0 10.0 0.00 0.29 0.29 48 1011.4
20260505184514 68 255 3.0 8.0 0.00 0.29 0.29 49 1011.3
20260505183013 69 254 4.0 9.0 0.00 0.29 0.29 49 1011.3
20260505181516 68 34 2.0 6.0 0.00 0.29 0.29 50 1011.4
20260505180019 66 320 2.0 5.0 0.00 0.29 0.29 59 1011.9
20260505174524 65 303 2.0 9.0 0.01 0.29 0.29 65 1012.1
20260505173007 65 314 2.0 7.0 0.01 0.29 0.29 63 1012.0
20260505171513 63 345 2.0 5.0 0.01 0.29 0.29 77 1012.3
20260505170023 61 201 1.0 4.0 0.01 0.29 0.29 78 1012.6
20260505164520 61 305 1.0 3.0 0.00 0.28 0.28 77 1012.4
20260505163028 59 211 0.0 5.0 0.00 0.28 0.28 82 1012.4
20260505161508 59 281 2.0 5.0 0.00 0.28 0.28 83 1012.3
20260505153024 56 354 1.0 2.0 0.01 0.28 0.28 86 1012.3
20260505151533 56 23 0.0 2.0 0.01 0.28 0.28 84 1012.3
20260505124513 54 50 0.0 0.0 0.00 0.27 0.27 90 1011.8
20260505123017 54 50 0.0 0.0 0.00 0.27 0.27 89 1011.7
20260505121518 54 20 0.0 2.0 0.01 0.27 0.27 88 1011.7
20260505120028 54 100 0.0 1.0 0.01 0.27 0.27 89 1011.8
20260505114508 54 142 0.0 1.0 0.02 0.27 0.27 89 1012.2
20260505113010 54 139 0.0 1.0 0.03 0.27 0.27 89 1012.0
20260505111535 54 261 0.0 1.0 0.03 0.26 0.26 87 1012.3
20260505101522 55 23 0.0 1.0 0.15 0.23 0.23 89 1012.5
20260505100020 55 22 0.0 2.0 0.16 0.20 0.20 88 1012.6
20260505094526 55 79 0.0 1.0 0.15 0.16 0.16 87 1012.5
20260505093027 55 136 0.0 1.0 0.10 0.11 0.11 87 1012.4